Theta_e
346 345 345 346 345 345 346 346 346 353 353 353 351 347 342 337 332 330 326 320 319 321 321 320 319 317 314 312 311 311 310 311 313 313 313 315 316 316 315 317 315 318 318
346 346 346 346 345 345 347 347 350 354 354 353 348 342 337 333 330 325 317 317 321 322 322 320 317 314 312 311 310 309 308 310 310 313 314 316 316 313 310 310 309 310 310
346 346 346 346 347 347 348 351 353 354 353 349 343 338 332 329 324 316 314 318 320 321 321 318 314 311 310 308 308 308 309 311 311 312 313 314 312 311 307 308 308 309 313
347 348 348 348 349 349 351 352 354 353 352 344 337 331 328 324 315 312 316 319 320 320 318 315 311 307 305 306 307 307 307 307 307 307 308 309 308 308 307 309 309 309 311
349 349 349 349 350 351 352 353 354 354 348 339 332 327 322 313 310 312 316 318 318 317 315 312 306 305 304 305 307 306 305 305 306 306 306 307 306 307 307 308 308 309 310
348 349 350 350 351 352 352 353 354 350 340 333 329 324 316 312 311 312 316 316 315 314 312 309 305 305 305 305 305 305 305 305 305 305 305 305 305 305 306 306 307 308 311
348 349 350 350 351 352 353 354 353 343 334 329 325 319 314 312 309 309 312 314 314 312 312 309 306 306 305 304 304 303 303 302 303 304 304 305 304 305 305 306 307 308 309
349 349 350 351 352 352 353 351 347 337 331 328 320 316 314 311 309 309 310 312 313 312 312 309 308 306 305 304 304 303 303 302 301 301 303 304 305 305 305 306 306 306 308
350 350 351 351 350 349 347 346 340 333 329 324 320 316 314 312 309 310 311 312 312 311 310 308 307 306 303 303 304 303 302 302 300 301 305 306 306 306 306 307 307 306 308
350 351 351 350 348 346 345 342 337 335 328 322 318 316 314 312 309 310 311 310 309 308 307 306 305 303 302 301 302 302 302 302 299 303 307 307 307 307 307 306 306 306 306
350 351 350 349 346 346 342 337 335 330 324 320 319 315 314 312 310 309 310 308 307 306 305 303 302 301 301 301 301 302 302 300 299 304 306 306 307 307 308 307 307 305 306
350 349 347 345 343 342 341 334 332 328 323 320 318 314 313 312 309 308 309 306 306 305 303 302 302 302 302 301 301 302 301 298 300 304 304 304 304 305 306 307 308 309 308
347 344 342 341 340 340 338 332 327 326 323 319 317 316 314 312 307 306 306 305 305 305 303 303 302 302 302 302 301 301 299 300 301 302 301 302 303 303 304 306 308 308 310
342 339 339 339 337 334 332 329 328 325 321 318 317 316 315 311 307 305 305 304 304 303 303 302 302 302 302 301 300 300 299 300 300 300 301 303 303 303 303 303 304 305 306
338 336 335 335 335 331 329 328 328 327 325 324 322 320 317 313 310 305 304 303 304 303 302 302 303 302 302 301 299 299 299 300 300 300 301 301 301 301 302 302 303 304 305
335 333 332 332 331 330 328 324 324 324 324 322 319 320 318 315 309 303 303 303 304 303 302 302 302 302 301 300 298 298 298 300 299 299 300 299 299 299 300 301 303 304 305
335 331 329 328 328 326 324 323 319 319 320 317 315 317 316 313 304 304 304 303 303 303 302 303 302 302 300 299 297 297 297 299 299 299 299 298 298 298 300 301 302 303 304
334 335 331 325 324 323 322 321 318 312 309 308 310 310 307 303 304 304 303 303 302 302 302 303 302 301 300 297 296 297 298 298 299 298 297 298 298 298 299 300 301 302 304
334 328 326 323 323 322 319 316 313 309 306 303 303 302 303 304 303 303 303 303 302 302 302 302 301 301 298 296 297 298 297 298 298 297 297 298 298 298 299 300 301 302 302
329 331 331 324 321 317 313 310 307 304 303 303 303 302 303 303 303 303 303 302 302 302 302 302 301 300 296 296 297 297 298 298 298 298 298 298 299 299 299 300 301 301 302
330 324 325 320 318 314 312 309 306 303 304 304 304 303 304 304 303 303 302 302 302 302 302 301 301 298 295 296 297 297 297 298 298 297 298 299 299 300 301 301 301 301 302
330 322 321 318 318 314 312 309 304 305 307 306 304 304 304 304 304 304 303 302 302 302 302 301 300 296 294 294 294 294 294 295 298 298 298 299 300 302 301 301 301 301 301
327 320 318 318 318 313 310 306 305 307 308 308 308 307 305 305 303 304 304 302 302 302 302 301 299 294 293 293 293 291 292 294 297 298 298 299 301 300 300 300 300 300 300
325 321 319 317 315 312 310 307 306 309 309 309 309 309 309 308 303 304 303 302 302 302 301 301 299 295 293 294 292 291 295 297 298 298 299 300 299 299 299 299 299 299 299
324 320 318 317 315 313 311 310 308 309 311 311 312 311 310 306 303 303 302 302 301 302 301 300 299 294 294 294 292 293 295 297 298 299 300 298 298 298 299 298 298 298 298
323 321 319 318 315 314 313 312 310 312 313 313 313 312 310 304 302 302 302 301 301 301 301 300 298 295 294 295 293 295 296 298 299 300 299 297 298 298 298 298 298 298 298
Wind_Speed
38 36 35 34 32 28 26 22 17 12 7 6 6 6 7 5 4 4 6 5 5 5 5 6 8 11 14 16 15 14 12 9 8 15 20 21 23 27 25 22 21 19 20
38 36 33 31 28 25 23 19 15 11 10 10 9 9 7 4 2 4 4 3 4 4 5 6 10 13 16 17 17 16 14 12 6 15 20 19 21 19 24 26 25 21 21
34 33 31 29 26 25 21 17 15 14 13 13 12 10 7 3 2 2 4 4 5 4 4 7 11 15 18 18 16 16 13 11 9 11 17 16 18 19 25 26 29 27 23
31 31 31 29 27 24 19 17 17 17 17 17 13 10 6 3 2 4 5 5 5 6 5 7 10 12 13 15 16 15 15 15 14 13 15 15 14 19 21 20 28 29 31
30 30 32 30 26 21 18 19 19 20 20 18 15 10 6 4 4 5 5 5 4 4 4 6 9 9 10 11 12 15 15 16 17 14 15 14 14 18 16 19 18 26 29
32 31 30 28 25 22 22 23 22 23 22 19 15 10 8 6 6 5 4 4 4 4 5 6 8 10 12 12 12 12 13 14 15 13 10 14 16 22 19 18 19 13 9
34 32 31 29 27 27 27 27 27 27 24 21 16 12 9 8 6 5 4 4 4 4 3 5 8 11 14 15 14 13 13 13 14 14 16 18 18 22 22 21 19 18 16
32 33 32 32 32 32 32 31 31 28 26 22 18 14 11 10 6 5 4 4 3 3 2 5 8 11 13 16 16 16 16 17 19 16 16 17 17 19 18 19 21 18 24
32 35 36 36 37 37 36 35 33 30 26 22 18 15 12 10 6 5 4 5 3 2 3 4 7 11 12 14 14 17 18 19 21 17 13 12 13 12 12 16 15 17 11
32 32 35 38 39 39 38 37 34 29 27 24 20 16 11 10 7 6 5 4 2 2 3 5 7 10 12 14 14 15 19 22 25 21 17 15 16 18 19 17 14 13 11
28 31 33 35 37 39 37 36 34 32 29 25 21 17 12 8 6 4 4 3 4 4 5 6 7 10 11 13 12 15 17 21 20 17 18 19 20 20 20 20 19 15 13
30 31 32 34 36 37 37 34 33 33 30 26 22 18 13 9 5 3 4 4 4 4 5 6 7 10 11 12 13 15 16 19 16 17 18 20 22 23 22 21 21 22 18
31 32 33 34 34 37 37 35 33 32 30 28 25 21 17 12 7 4 5 5 3 3 3 4 4 8 9 14 15 14 17 19 17 17 18 19 20 20 21 23 21 22 21
33 32 34 35 33 30 30 33 35 32 24 23 21 20 18 14 9 6 7 5 3 2 2 3 4 8 11 14 17 16 18 19 17 17 18 20 22 23 21 21 19 22 18
32 33 31 34 34 31 29 29 30 28 25 26 24 21 21 18 12 7 7 5 3 3 1 2 5 10 13 17 18 17 17 18 18 18 19 20 19 20 20 21 18 17 17
32 30 32 35 34 33 31 25 21 19 17 14 12 13 16 10 10 10 7 5 4 3 1 2 5 9 11 15 16 16 16 18 19 18 18 19 18 17 19 19 18 16 18
33 32 35 34 36 35 31 29 24 16 15 12 11 12 10 10 11 10 7 7 6 2 2 2 3 7 10 13 14 13 15 17 17 18 19 20 21 20 19 18 18 17 19
32 39 37 35 36 34 33 30 28 27 23 17 14 13 12 13 13 9 11 9 5 3 1 1 2 6 10 12 12 13 15 17 17 19 20 21 21 19 18 18 18 18 20
35 33 32 33 36 34 32 30 28 25 23 22 20 16 16 15 12 9 8 5 5 3 2 1 3 7 10 11 10 11 13 15 16 19 21 22 22 20 19 18 17 20 20
29 33 34 36 35 33 32 30 27 25 25 24 22 21 20 17 14 11 8 7 5 4 3 2 3 8 9 9 9 11 14 17 18 20 22 22 23 21 19 18 17 18 20
29 30 32 33 35 35 34 31 29 28 26 24 23 21 19 18 15 13 11 9 6 4 4 2 5 7 8 9 9 11 12 14 17 19 21 22 22 21 21 18 17 19 20
29 30 32 33 35 34 33 31 30 30 27 25 22 21 18 16 13 13 13 10 7 5 5 1 4 6 7 9 10 11 13 14 16 18 20 20 20 19 18 17 19 20 20
28 28 30 32 34 33 31 31 31 30 28 25 22 22 21 18 14 14 15 12 10 8 8 3 3 5 7 9 11 13 13 13 14 16 18 18 18 18 17 18 18 19 22
29 30 32 32 33 32 31 31 31 30 27 24 22 22 21 18 15 17 16 14 12 11 9 4 2 4 6 8 10 11 10 11 13 14 15 16 18 17 17 18 18 19 20
29 30 31 32 32 30 30 30 30 29 27 25 24 23 23 20 19 19 18 16 14 13 10 5 2 3 4 7 10 11 8 9 10 12 13 16 18 18 16 18 18 19 20
29 31 32 34 31 31 31 30 30 29 28 27 27 26 26 23 20 21 20 18 15 14 12 7 3 2 2 5 9 11 9 8 9 11 13 16 18 17 17 19 19 18 21
Wind_Direction
234 236 238 243 246 250 254 257 258 257 245 224 204 171 139 127 91 21 0 14 42 58 57 45 36 16 5 0 358 357 357 345 306 316 318 330 345 345 348 353 0 356 347
230 232 236 240 243 247 248 245 236 227 209 208 187 162 147 125 54 15 18 61 79 67 59 36 25 8 358 355 354 351 347 344 312 310 320 336 335 350 350 349 353 353 350
225 227 230 234 236 238 237 229 218 211 208 187 175 159 147 111 51 33 72 83 82 92 71 36 22 5 2 358 354 351 353 349 333 312 310 329 331 344 347 349 345 347 354
219 221 224 226 229 230 226 214 204 202 193 176 166 154 136 106 74 91 92 99 101 98 68 40 24 14 10 2 360 358 354 346 345 341 325 327 338 336 347 339 339 342 340
212 215 222 225 224 219 207 200 195 192 183 172 162 149 132 110 102 105 114 112 98 97 73 49 24 20 19 10 353 352 351 346 344 340 327 327 332 336 340 332 326 331 334
208 212 220 218 213 203 195 189 187 185 173 167 159 150 136 115 101 98 112 118 116 89 86 51 37 29 20 14 6 1 357 348 341 333 320 319 320 328 331 327 324 334 334
203 210 212 210 203 193 187 184 184 177 172 168 160 151 136 111 96 106 121 123 117 98 72 38 27 17 4 2 360 356 359 358 348 328 322 325 319 329 329 324 324 314 299
196 200 203 201 196 187 183 181 179 177 173 168 157 151 137 115 98 96 117 147 123 77 40 13 6 3 1 355 351 354 357 356 355 345 333 330 327 332 330 322 325 319 324
190 191 195 195 186 181 179 179 178 174 171 167 162 155 144 122 97 91 116 136 138 63 42 13 4 0 357 353 348 347 349 353 355 354 351 349 347 353 356 346 347 340 333
190 188 191 189 183 176 181 179 177 178 172 167 161 157 148 131 105 111 125 136 127 97 45 36 19 6 356 348 348 348 349 353 352 354 1 3 6 7 9 10 356 335 332
184 186 187 188 182 182 178 176 173 170 168 166 163 159 156 143 121 129 138 139 123 88 59 39 28 10 359 359 2 0 356 347 348 356 2 7 9 8 5 5 1 348 328
182 179 179 179 177 178 176 171 171 169 167 166 164 163 168 162 158 150 140 111 108 81 62 43 30 7 3 4 5 0 353 348 357 3 5 4 1 0 3 4 5 358 347
169 165 167 171 173 175 172 165 164 171 170 170 174 177 178 179 173 152 143 129 109 105 73 43 14 2 2 9 8 2 356 2 5 5 1 357 355 357 4 2 3 360 357
154 155 161 164 164 166 168 169 169 172 166 169 179 187 188 186 181 171 167 154 148 142 117 39 16 5 10 7 6 8 11 13 9 4 360 360 2 2 4 0 350 350 345
150 152 153 159 162 163 169 175 182 186 186 184 192 193 190 193 189 180 174 165 164 165 97 31 9 7 4 3 9 10 11 14 13 6 3 1 0 0 358 358 355 350 351
147 151 153 159 165 168 167 166 177 182 189 192 193 204 195 186 175 173 162 158 168 171 53 2 9 6 358 358 360 2 9 7 7 6 4 1 356 356 353 355 355 354 350
150 154 156 161 164 166 168 166 154 163 177 175 174 176 184 176 170 166 169 161 151 150 46 20 2 353 355 357 358 359 357 3 4 9 7 6 0 359 358 354 353 352 351
157 164 162 167 169 169 171 172 168 162 155 145 148 158 167 165 158 150 153 159 144 119 87 162 2 352 351 356 2 4 1 4 10 9 9 9 4 360 356 356 354 351 350
163 158 164 170 174 175 174 173 172 169 164 154 150 156 160 162 163 160 167 189 177 139 147 148 12 350 353 3 10 9 9 8 13 10 7 8 5 2 359 356 352 354 355
163 172 177 177 174 173 173 174 169 167 163 162 166 166 166 174 178 179 179 173 174 168 158 135 13 358 358 7 10 7 9 10 12 8 5 7 6 4 0 357 359 356 356
169 172 178 174 173 177 177 178 173 170 169 171 175 176 178 183 186 186 179 180 185 170 150 104 9 1 5 6 2 2 5 6 6 2 1 5 4 3 9 11 3 359 358
174 173 177 176 179 181 182 182 177 175 177 176 178 181 188 199 200 194 190 187 186 171 165 122 13 10 19 11 2 358 355 359 359 0 2 3 6 9 11 7 3 5 8
177 174 174 180 184 185 184 185 182 183 184 186 184 185 193 203 204 198 192 188 192 184 171 150 22 28 30 21 9 5 3 5 5 1 1 6 16 14 11 10 12 16 16
183 180 179 182 183 185 187 186 190 190 192 193 195 198 201 206 204 191 186 188 196 187 177 158 50 46 33 23 16 12 18 19 13 12 12 27 26 21 25 27 21 16 16
188 183 180 184 186 187 188 190 193 195 199 201 201 201 199 202 198 191 188 192 196 186 180 167 86 56 43 31 24 21 26 22 25 30 48 41 40 41 33 25 19 19 19
194 189 186 189 189 191 192 194 195 197 202 204 203 198 195 197 195 189 190 191 193 189 186 179 148 107 75 43 33 31 37 39 45 65 58 51 49 37 34 31 25 23 19